Temp
-8 -7 -7 -6 -5 -6 -6 -6 -6 -6 -5 -5 -5 -5 -5 -5 -5 -5 -5 -4 -4 -4 -4 -4 -4 -5 -5 -5 -6 -6 -7 -7 -7 -8 -8 -9 -9 -10 -11 -11 -9 -9 -10 -9 -9
-8 -8 -8 -7 -6 -7 -7 -6 -6 -6 -5 -5 -6 -6 -6 -5 -5 -5 -5 -5 -4 -4 -4 -4 -4 -5 -5 -5 -6 -6 -6 -7 -7 -8 -8 -8 -9 -11 -11 -10 -10 -10 -10 -10 -10
-8 -8 -9 -8 -7 -7 -7 -7 -6 -6 -5 -5 -6 -6 -6 -5 -5 -5 -5 -5 -5 -4 -4 -4 -4 -4 -5 -6 -5 -5 -6 -6 -7 -8 -9 -9 -10 -11 -10 -11 -11 -10 -10 -10 -10
-9 -8 -9 -9 -9 -8 -8 -7 -7 -6 -6 -6 -6 -6 -6 -5 -5 -5 -5 -5 -5 -5 -4 -4 -4 -4 -5 -5 -5 -6 -6 -7 -8 -9 -9 -10 -9 -9 -10 -11 -11 -10 -10 -11 -11
-9 -9 -9 -9 -9 -9 -8 -8 -7 -6 -6 -6 -6 -6 -6 -5 -5 -5 -5 -5 -5 -5 -5 -5 -5 -5 -5 -6 -6 -6 -7 -7 -9 -9 -9 -9 -9 -9 -10 -11 -10 -10 -11 -11 -11
-10 -10 -10 -10 -10 -9 -8 -8 -7 -7 -6 -6 -6 -6 -6 -5 -5 -5 -5 -5 -5 -5 -6 -6 -6 -6 -6 -6 -7 -7 -8 -9 -9 -8 -8 -9 -9 -9 -9 -10 -10 -10 -11 -11 -11
-11 -11 -10 -10 -10 -10 -9 -8 -8 -7 -8 -7 -6 -6 -6 -6 -5 -5 -5 -6 -6 -6 -6 -6 -6 -6 -7 -7 -7 -8 -8 -9 -9 -9 -9 -8 -9 -10 -10 -10 -10 -11 -11 -11 -11
-12 -12 -12 -11 -10 -10 -9 -9 -8 -8 -7 -7 -7 -7 -6 -6 -5 -5 -6 -6 -6 -6 -6 -6 -6 -6 -6 -7 -7 -8 -9 -9 -9 -8 -8 -9 -9 -10 -10 -10 -11 -11 -11 -11 -11
-12 -12 -12 -12 -11 -10 -10 -9 -9 -8 -8 -8 -7 -7 -6 -6 -6 -6 -6 -6 -6 -6 -6 -6 -6 -6 -6 -7 -7 -8 -9 -8 -8 -8 -8 -9 -9 -10 -10 -11 -11 -11 -11 -11 -11
-13 -13 -13 -12 -11 -10 -10 -10 -10 -9 -8 -8 -7 -7 -6 -6 -6 -6 -6 -6 -6 -7 -6 -6 -6 -7 -6 -7 -8 -8 -8 -8 -8 -8 -8 -9 -10 -10 -11 -11 -10 -11 -11 -11 -10
-14 -14 -14 -13 -12 -11 -10 -10 -10 -9 -9 -8 -7 -7 -7 -7 -7 -6 -6 -6 -7 -7 -7 -7 -7 -7 -7 -8 -8 -8 -8 -8 -8 -8 -8 -9 -10 -10 -10 -10 -10 -11 -11 -11 -10
-14 -14 -14 -13 -13 -11 -10 -10 -11 -10 -9 -8 -8 -7 -7 -7 -7 -7 -7 -7 -7 -7 -7 -7 -7 -7 -8 -8 -8 -8 -8 -8 -9 -9 -9 -9 -10 -10 -10 -10 -10 -11 -11 -10 -9
-14 -14 -13 -13 -13 -12 -11 -11 -11 -10 -9 -9 -8 -8 -8 -7 -7 -7 -7 -7 -7 -7 -7 -7 -7 -8 -9 -8 -8 -8 -8 -8 -8 -8 -9 -9 -10 -10 -10 -10 -11 -11 -11 -10 -9
-14 -14 -14 -13 -13 -13 -12 -12 -12 -11 -9 -9 -8 -8 -8 -8 -7 -7 -8 -8 -7 -7 -7 -7 -8 -9 -9 -9 -8 -8 -9 -8 -8 -8 -8 -9 -9 -10 -10 -10 -11 -10 -10 -10 -9
-15 -14 -14 -14 -13 -14 -14 -14 -13 -12 -11 -10 -9 -8 -8 -8 -8 -8 -8 -8 -8 -7 -7 -7 -9 -8 -8 -9 -9 -9 -9 -9 -9 -9 -8 -9 -10 -10 -10 -10 -11 -10 -10 -9 -9
-15 -15 -14 -14 -13 -14 -15 -13 -13 -12 -11 -10 -9 -9 -9 -8 -8 -8 -8 -8 -8 -7 -8 -8 -8 -9 -9 -9 -9 -9 -9 -10 -10 -10 -9 -9 -9 -10 -10 -9 -10 -10 -10 -9 -9
-15 -14 -15 -14 -14 -14 -15 -14 -13 -12 -11 -10 -10 -9 -9 -9 -9 -8 -8 -8 -8 -8 -8 -8 -9 -9 -9 -9 -9 -9 -10 -11 -11 -11 -10 -10 -9 -9 -9 -10 -10 -10 -10 -10 -10
-14 -14 -14 -14 -14 -13 -15 -14 -14 -14 -12 -11 -10 -9 -9 -9 -9 -9 -9 -9 -8 -9 -9 -9 -9 -9 -9 -10 -10 -10 -10 -10 -11 -11 -10 -10 -10 -10 -10 -10 -10 -10 -10 -10 -10
-14 -14 -14 -14 -14 -14 -14 -14 -15 -13 -12 -12 -11 -10 -10 -9 -9 -9 -9 -9 -9 -9 -9 -10 -9 -10 -10 -10 -10 -10 -9 -9 -10 -10 -10 -10 -10 -11 -10 -10 -11 -11 -11 -11 -10
-15 -14 -14 -14 -14 -14 -13 -14 -15 -13 -12 -13 -12 -11 -10 -10 -9 -9 -10 -10 -10 -9 -10 -10 -10 -10 -10 -11 -10 -10 -10 -9 -10 -9 -9 -10 -10 -10 -10 -11 -11 -11 -11 -10 -10
-15 -14 -15 -14 -14 -14 -14 -14 -13 -15 -13 -13 -12 -11 -10 -10 -10 -10 -10 -10 -10 -10 -11 -10 -10 -10 -11 -11 -10 -10 -10 -10 -10 -9 -9 -10 -11 -11 -11 -10 -11 -11 -11 -10 -11
-15 -14 -14 -15 -14 -14 -14 -14 -14 -15 -14 -13 -12 -12 -11 -10 -10 -10 -11 -11 -10 -10 -10 -10 -11 -12 -11 -11 -11 -10 -10 -10 -10 -10 -11 -11 -11 -11 -11 -11 -11 -11 -11 -11 -12
-15 -15 -14 -15 -14 -14 -14 -14 -14 -14 -14 -13 -13 -12 -12 -11 -11 -11 -11 -11 -10 -10 -10 -11 -11 -12 -12 -11 -11 -11 -11 -11 -11 -11 -11 -11 -11 -12 -12 -12 -12 -13 -13 -13 -13
-15 -15 -14 -14 -14 -14 -14 -15 -14 -14 -14 -13 -13 -12 -12 -11 -11 -12 -12 -12 -11 -11 -12 -12 -12 -12 -11 -12 -12 -12 -12 -11 -11 -11 -11 -10 -10 -11 -12 -12 -12 -13 -13 -13 -13
-15 -15 -14 -14 -14 -14 -14 -15 -14 -14 -14 -14 -13 -13 -13 -13 -12 -11 -12 -12 -12 -13 -13 -13 -12 -12 -12 -12 -12 -12 -12 -12 -12 -12 -11 -11 -10 -11 -11 -11 -11 -12 -12 -12 -12
-15 -15 -15 -14 -15 -14 -14 -14 -14 -14 -14 -14 -14 -13 -13 -13 -12 -12 -12 -12 -12 -12 -12 -12 -12 -12 -12 -12 -13 -13 -12 -12 -12 -12 -12 -11 -11 -11 -11 -11 -11 -11 -11 -12 -12
-16 -16 -15 -15 -14 -15 -14 -14 -14 -14 -14 -14 -13 -13 -13 -13 -13 -13 -13 -13 -13 -13 -12 -12 -12 -12 -12 -12 -12 -12 -12 -12 -12 -12 -12 -12 -11 -11 -11 -11 -11 -11 -12 -12 -12
Height
5856 5858 5860 5863 5865 5868 5873 5876 5878 5880 5882 5884 5885 5887 5887 5887 5886 5886 5886 5886 5886 5886 5887 5887 5888 5888 5889 5889 5890 5890 5889 5890 5892 5893 5893 5892 5891 5890 5891 5894 5894 5893 5890 5887 5884
5852 5853 5855 5857 5861 5863 5868 5871 5874 5876 5878 5880 5882 5884 5884 5885 5885 5884 5884 5884 5884 5885 5886 5887 5888 5889 5889 5890 5890 5891 5890 5889 5893 5892 5893 5893 5892 5891 5893 5895 5895 5893 5890 5887 5883
5846 5848 5851 5854 5857 5858 5862 5866 5869 5872 5874 5877 5879 5881 5881 5882 5883 5883 5883 5883 5883 5884 5885 5886 5887 5889 5889 5889 5890 5891 5892 5891 5893 5893 5893 5893 5892 5892 5893 5894 5894 5891 5890 5888 5885
5840 5843 5846 5850 5851 5853 5856 5860 5864 5866 5868 5872 5875 5877 5878 5879 5881 5881 5881 5882 5882 5883 5884 5886 5887 5888 5889 5890 5891 5891 5893 5893 5892 5892 5893 5892 5892 5892 5893 5893 5892 5891 5891 5889 5888
5834 5837 5840 5844 5847 5849 5851 5854 5857 5860 5863 5867 5870 5873 5874 5875 5877 5878 5879 5880 5881 5882 5884 5886 5887 5888 5889 5890 5890 5891 5893 5893 5892 5891 5891 5893 5892 5891 5891 5892 5892 5892 5890 5888 5888
5828 5831 5834 5838 5841 5844 5846 5848 5852 5854 5857 5861 5865 5868 5871 5873 5873 5875 5877 5878 5879 5881 5884 5884 5886 5888 5889 5890 5891 5891 5893 5893 5890 5891 5893 5892 5890 5890 5891 5892 5892 5891 5891 5887 5887
5822 5825 5829 5832 5835 5838 5840 5843 5846 5849 5853 5856 5860 5863 5866 5869 5869 5871 5873 5875 5878 5880 5882 5883 5884 5886 5887 5889 5891 5891 5893 5892 5891 5892 5892 5891 5891 5890 5891 5892 5892 5891 5889 5887 5887
5816 5820 5823 5826 5829 5832 5835 5839 5841 5844 5847 5851 5855 5858 5861 5864 5866 5868 5871 5873 5874 5875 5878 5880 5882 5884 5885 5886 5887 5888 5891 5890 5891 5890 5890 5889 5889 5890 5890 5891 5891 5889 5887 5886 5885
5811 5814 5818 5820 5823 5827 5831 5835 5836 5840 5844 5847 5850 5854 5857 5861 5862 5864 5868 5871 5872 5874 5878 5880 5882 5883 5883 5883 5885 5886 5887 5888 5890 5890 5890 5890 5890 5890 5891 5889 5888 5887 5885 5883 5882
5807 5809 5813 5815 5817 5821 5826 5830 5832 5837 5840 5843 5846 5851 5855 5858 5859 5862 5865 5867 5871 5873 5877 5879 5880 5881 5881 5882 5884 5884 5886 5888 5889 5890 5889 5889 5889 5889 5889 5888 5887 5886 5883 5880 5880
5802 5805 5808 5810 5812 5815 5821 5827 5830 5834 5836 5839 5842 5846 5849 5854 5857 5858 5862 5865 5868 5870 5873 5876 5878 5878 5879 5881 5883 5884 5887 5887 5887 5888 5888 5888 5888 5889 5889 5887 5886 5883 5881 5880 5878
5798 5801 5804 5806 5807 5809 5816 5822 5825 5828 5831 5835 5838 5842 5844 5849 5853 5856 5860 5863 5865 5868 5871 5875 5875 5876 5877 5879 5880 5883 5884 5885 5885 5886 5886 5886 5888 5888 5888 5886 5884 5881 5880 5880 5878
5793 5796 5800 5801 5803 5806 5811 5815 5820 5823 5826 5831 5835 5837 5841 5845 5849 5853 5857 5860 5864 5867 5869 5870 5873 5874 5875 5877 5878 5881 5883 5884 5884 5884 5884 5885 5887 5886 5885 5884 5883 5881 5880 5880 5879
5789 5792 5795 5796 5801 5801 5805 5809 5813 5817 5821 5827 5831 5834 5838 5841 5845 5849 5853 5858 5861 5865 5867 5868 5871 5872 5873 5874 5876 5879 5880 5882 5882 5881 5883 5884 5884 5883 5883 5884 5883 5881 5880 5879 5879
5785 5789 5791 5793 5795 5797 5800 5805 5807 5813 5818 5823 5826 5831 5834 5838 5842 5844 5849 5853 5857 5862 5865 5867 5868 5870 5872 5872 5874 5876 5877 5878 5880 5881 5883 5882 5881 5880 5881 5883 5882 5881 5880 5879 5879
5780 5784 5787 5789 5792 5793 5797 5802 5804 5810 5814 5818 5821 5826 5830 5833 5837 5840 5844 5848 5853 5857 5860 5864 5867 5869 5870 5871 5872 5874 5874 5875 5877 5878 5880 5881 5882 5880 5878 5879 5879 5878 5878 5878 5878
5775 5780 5783 5785 5788 5790 5794 5797 5802 5806 5808 5812 5815 5819 5823 5827 5832 5836 5841 5845 5850 5853 5856 5860 5863 5866 5867 5869 5869 5870 5872 5873 5875 5875 5878 5879 5880 5880 5880 5879 5879 5879 5878 5877 5877
5770 5774 5777 5780 5785 5786 5789 5794 5797 5801 5805 5809 5811 5815 5819 5824 5829 5833 5837 5842 5847 5850 5853 5856 5859 5862 5863 5864 5866 5867 5869 5870 5871 5873 5875 5876 5876 5877 5877 5876 5876 5877 5875 5874 5874
5766 5768 5771 5776 5781 5782 5786 5790 5794 5797 5803 5806 5808 5812 5816 5821 5824 5828 5833 5838 5841 5846 5851 5852 5855 5858 5860 5861 5863 5864 5866 5868 5867 5869 5871 5871 5872 5872 5873 5872 5872 5872 5872 5871 5870
5760 5763 5766 5771 5775 5779 5782 5788 5790 5794 5799 5803 5806 5809 5813 5817 5821 5824 5827 5833 5837 5843 5845 5848 5851 5854 5857 5858 5859 5860 5862 5864 5864 5865 5866 5866 5867 5867 5869 5869 5868 5868 5868 5866 5865
5755 5757 5761 5765 5769 5773 5778 5784 5788 5789 5795 5800 5803 5806 5809 5811 5816 5820 5826 5830 5832 5837 5840 5844 5848 5852 5854 5854 5856 5858 5859 5860 5861 5862 5861 5861 5862 5862 5862 5864 5863 5863 5862 5861 5860
5747 5752 5756 5759 5764 5768 5773 5777 5780 5784 5791 5796 5800 5803 5805 5810 5814 5818 5822 5825 5829 5832 5837 5841 5844 5847 5850 5850 5852 5854 5855 5856 5857 5858 5856 5857 5859 5857 5857 5857 5856 5857 5856 5855 5853
5740 5744 5749 5753 5758 5762 5767 5770 5775 5783 5787 5792 5795 5798 5802 5807 5812 5815 5818 5821 5826 5829 5833 5837 5839 5842 5845 5847 5848 5849 5852 5852 5853 5852 5852 5852 5854 5852 5852 5852 5851 5850 5848 5847 5847
5733 5737 5743 5749 5753 5758 5762 5767 5772 5777 5783 5787 5791 5796 5800 5803 5808 5811 5814 5819 5822 5825 5830 5833 5836 5839 5842 5846 5845 5845 5846 5847 5848 5848 5847 5847 5848 5849 5847 5847 5845 5844 5843 5841 5840
5724 5729 5736 5742 5747 5752 5758 5763 5766 5773 5777 5780 5786 5790 5795 5800 5805 5808 5813 5817 5820 5824 5826 5829 5831 5835 5838 5840 5840 5840 5841 5842 5842 5841 5841 5841 5840 5842 5841 5840 5839 5838 5836 5834 5832
5717 5722 5729 5735 5741 5748 5753 5758 5762 5768 5773 5777 5782 5787 5792 5798 5801 5805 5807 5813 5818 5822 5824 5825 5827 5831 5833 5835 5835 5835 5836 5838 5837 5837 5835 5833 5833 5833 5833 5833 5831 5829 5827 5825 5822
5709 5714 5721 5729 5734 5741 5747 5752 5756 5762 5767 5769 5777 5781 5789 5792 5796 5801 5804 5807 5812 5815 5819 5821 5823 5826 5827 5828 5829 5830 5833 5833 5832 5831 5828 5827 5828 5826 5825 5824 5823 5820 5817 5814 5812
Wind_Speed
26 27 26 27 26 32 34 33 30 25 24 21 19 16 13 14 10 10 11 10 9 8 6 5 7 8 8 7 8 9 10 10 8 10 10 11 9 9 10 14 19 22 25 21 20
27 27 27 23 28 29 35 35 33 28 27 26 23 20 16 15 11 12 12 11 11 11 10 9 7 7 9 8 11 8 10 11 8 13 17 16 12 8 9 16 21 24 24 21 21
29 28 30 27 27 27 36 37 36 33 31 29 28 24 19 15 13 14 13 12 12 13 12 12 11 10 11 11 10 9 10 11 10 14 20 15 13 10 15 15 19 26 22 15 21
31 30 33 32 28 25 26 34 39 37 36 32 30 25 20 18 15 16 14 14 14 14 13 12 12 11 9 7 8 11 9 8 10 14 17 17 18 17 17 17 20 24 18 19 23
35 32 34 33 32 30 27 23 35 37 38 34 29 23 19 18 16 17 17 16 16 15 13 10 9 8 7 4 9 9 8 6 13 19 17 16 18 19 17 19 19 15 15 15 22
37 34 34 36 34 34 30 20 27 31 36 36 28 25 21 18 17 18 18 19 17 15 13 11 9 9 7 6 9 8 4 9 18 18 16 16 14 13 12 11 13 10 12 15 17
38 35 33 38 37 33 27 23 19 23 27 28 29 26 22 21 18 18 20 19 16 16 16 15 15 14 14 10 10 11 10 12 18 15 15 7 9 12 13 13 13 15 17 14 14
34 34 31 33 37 34 31 27 20 21 21 26 27 24 24 22 20 20 21 21 21 22 22 21 18 17 16 14 16 16 14 16 14 10 4 7 7 9 10 8 9 13 16 16 15
30 31 31 33 35 34 32 28 20 19 20 23 25 24 24 22 21 21 22 23 23 22 20 16 15 16 16 15 14 16 20 21 17 7 4 5 6 5 4 12 12 14 18 16 16
26 26 29 31 33 36 33 27 21 21 22 22 23 23 21 21 22 21 23 23 21 20 18 16 16 18 17 15 18 19 15 12 12 6 3 6 9 3 7 10 10 16 21 20 12
26 24 25 24 30 35 35 28 22 22 22 21 22 22 21 21 22 23 23 23 23 22 21 20 18 19 18 18 18 16 14 15 13 2 3 5 6 5 3 4 6 17 22 19 13
26 27 25 22 25 32 31 29 25 24 25 23 21 21 24 22 23 23 23 24 24 22 21 19 20 16 19 20 18 17 13 13 11 5 4 3 3 2 3 6 9 14 19 16 11
23 32 29 23 24 25 26 29 25 25 26 23 22 21 24 25 25 24 24 24 23 23 22 20 19 19 21 18 18 16 13 13 8 5 2 3 3 2 3 4 9 11 14 15 12
24 24 23 17 27 21 24 24 26 26 25 26 22 22 23 26 27 26 25 24 25 23 23 20 19 22 22 21 21 16 15 12 6 4 7 10 11 6 2 3 7 9 9 13 12
26 23 21 21 21 20 21 19 24 26 24 26 25 23 25 28 26 27 25 24 25 24 23 20 21 20 20 23 21 22 18 9 9 9 9 9 12 8 12 5 7 10 11 9 11
28 26 28 22 19 22 16 18 25 22 24 24 26 25 27 28 28 28 27 27 25 24 22 20 18 16 17 17 20 22 20 16 16 16 8 7 10 8 17 12 9 6 9 10 11
28 27 28 25 21 23 19 20 26 22 25 26 29 30 30 30 28 28 27 25 24 26 23 19 17 18 19 21 25 21 17 19 21 23 16 17 12 10 12 10 15 10 11 10 7
30 29 29 28 23 23 21 22 23 27 29 23 26 31 31 31 28 27 26 27 26 25 24 22 21 19 17 19 23 22 22 25 27 25 18 16 18 15 13 16 16 12 11 12 13
29 30 31 31 28 25 23 22 26 28 27 24 24 27 29 29 30 29 27 26 27 25 25 25 22 20 19 20 22 22 23 23 27 26 24 22 20 21 15 13 13 13 16 18 20
32 31 29 28 30 29 25 22 27 29 27 25 24 24 28 29 32 31 30 29 28 25 27 26 25 22 21 20 21 24 21 18 17 20 22 22 20 21 15 13 16 17 21 23 23
34 34 29 27 31 33 26 27 29 31 30 29 26 25 28 33 31 29 27 27 31 27 30 28 26 25 22 23 23 22 19 19 21 20 20 20 20 21 22 19 20 22 23 22 22
35 37 34 28 29 32 28 32 39 35 34 32 30 26 27 30 30 28 25 26 25 26 28 30 29 30 25 28 25 24 23 21 17 12 14 17 20 21 21 22 25 27 27 26 27
38 38 36 31 28 31 32 37 36 34 35 35 33 30 28 27 27 25 25 25 26 26 27 28 30 30 29 27 27 24 19 18 17 22 24 23 21 22 24 27 30 31 31 31 31
40 40 38 35 31 31 36 37 38 36 37 35 34 35 31 30 30 27 25 24 23 25 24 25 29 29 25 20 23 25 25 23 26 27 27 26 25 24 26 26 25 26 24 29 32
40 43 39 37 35 32 33 34 42 35 39 42 35 33 35 32 29 27 27 23 24 26 25 23 26 28 25 25 25 28 27 27 28 30 29 28 29 29 29 29 29 30 34 32 33
41 42 41 39 37 33 31 37 42 33 38 43 41 37 35 33 30 27 25 27 27 27 28 26 25 23 27 28 30 31 29 26 27 28 34 36 35 33 31 32 33 33 33 33 36
42 44 42 40 40 36 33 35 39 42 34 42 47 43 37 36 34 33 30 27 25 24 26 28 28 28 29 31 32 34 30 31 31 32 32 33 33 34 35 35 35 35 36 37 38
Wind_Direction
246 241 237 241 250 239 234 236 237 240 249 260 263 261 269 278 280 267 254 233 216 200 204 194 199 195 212 224 227 257 254 282 318 324 314 311 341 12 10 346 3 4 3 358 19
242 241 238 232 239 236 234 238 239 243 249 256 263 263 262 276 282 268 252 230 213 205 195 192 188 190 202 223 240 252 269 289 332 325 313 328 324 341 338 345 339 356 2 13 16
241 243 236 231 228 232 236 237 241 244 245 249 263 263 263 271 277 266 254 230 213 206 200 196 196 195 203 219 258 279 274 298 313 322 320 317 326 325 334 334 334 341 4 4 23
240 240 234 231 228 225 231 239 241 242 245 252 253 258 264 268 272 262 249 228 214 205 205 211 209 213 217 237 269 265 308 306 311 300 300 297 317 330 326 329 319 340 28 38 24
237 236 231 231 229 229 232 239 239 243 243 254 251 249 258 266 256 252 242 224 215 206 203 205 214 219 233 242 265 297 314 289 286 286 295 309 321 326 320 311 328 31 47 21 6
239 236 230 229 231 230 226 235 243 243 245 249 244 248 255 260 248 244 236 221 214 204 196 189 195 207 215 234 262 295 284 245 264 290 314 325 356 341 343 9 35 29 25 357 3
239 239 230 228 233 232 224 224 236 241 249 247 237 247 251 249 240 237 228 217 206 200 198 198 201 203 203 208 236 245 238 253 268 286 304 348 43 47 50 45 52 46 30 354 358
247 243 236 234 237 237 231 232 225 242 251 247 242 243 243 242 238 233 222 211 204 199 203 211 219 215 214 216 223 223 229 247 243 273 360 50 43 47 47 24 18 23 4 353 5
254 246 240 236 237 240 236 232 219 230 240 239 239 235 239 238 231 225 217 213 213 208 211 220 224 227 235 233 237 225 221 236 237 245 94 94 96 82 25 46 35 37 13 360 2
244 240 238 239 243 239 239 228 213 219 226 230 232 230 232 227 225 220 215 213 210 206 216 218 224 235 242 229 230 234 233 225 233 245 122 93 64 30 53 60 45 31 19 10 29
229 232 238 234 236 239 240 231 217 213 219 223 221 217 220 217 218 213 214 209 202 205 214 214 223 227 233 226 231 237 224 234 233 213 164 108 91 40 80 15 19 26 19 8 11
232 225 232 237 234 237 232 230 217 211 212 215 216 210 207 207 211 212 213 211 209 210 210 214 226 226 224 227 234 237 239 221 214 213 182 103 120 70 6 336 21 28 26 13 8
237 228 232 231 241 234 224 221 217 215 206 211 213 206 207 205 206 208 212 218 216 213 214 219 222 221 227 236 243 246 244 242 220 227 217 237 237 252 331 359 13 10 29 15 19
228 235 226 232 238 232 220 214 214 210 205 208 212 207 207 208 206 206 210 214 219 217 219 220 219 220 224 234 243 243 243 226 189 220 269 272 272 296 260 350 341 360 19 12 12
229 225 229 232 242 224 222 212 208 203 204 206 209 206 206 208 207 207 208 213 217 215 217 218 213 225 239 245 255 248 246 239 235 226 261 280 301 298 280 294 307 1 348 352 3
227 226 225 230 241 222 212 214 205 198 202 206 207 204 206 209 210 208 209 213 215 216 217 218 221 231 244 253 250 244 238 243 255 261 262 250 265 285 312 282 275 320 329 335 346
222 221 231 230 229 226 207 215 208 196 196 201 203 200 202 206 208 212 214 215 214 216 218 220 223 232 251 255 241 234 232 242 252 254 256 246 279 288 290 270 273 288 306 328 300
229 226 229 230 222 233 205 208 219 194 203 203 206 204 201 205 202 210 215 219 216 214 219 220 227 235 242 245 233 232 237 239 245 250 251 245 264 278 260 276 270 286 295 313 320
228 230 234 230 225 228 202 216 207 202 199 197 208 208 205 202 202 204 210 216 220 217 218 221 229 236 246 251 246 244 243 250 250 253 257 258 266 276 280 268 280 270 289 297 295
229 230 233 228 224 218 222 202 208 210 202 192 201 210 204 205 206 205 206 210 218 218 217 220 229 235 243 239 243 243 245 252 255 264 269 270 267 275 276 276 281 287 288 291 306
225 229 230 227 224 216 223 202 200 215 203 199 198 207 211 203 203 208 208 215 221 216 219 218 228 235 237 236 240 249 261 263 268 274 278 277 276 283 290 286 283 288 292 296 308
223 225 226 228 224 221 230 195 207 209 210 203 199 202 216 216 203 206 208 216 224 224 218 222 223 231 232 237 251 255 256 263 269 284 292 294 297 297 292 294 300 306 304 306 311
223 223 225 227 226 221 224 198 221 202 209 214 207 208 213 214 203 198 205 218 216 207 205 213 221 226 231 238 250 264 265 261 262 276 281 284 297 296 294 303 305 306 301 301 303
223 225 225 222 226 222 221 205 199 211 213 209 212 212 209 211 206 194 200 205 212 192 199 210 218 233 246 264 262 269 277 272 272 276 279 278 281 287 287 288 291 290 300 295 290
225 227 221 223 223 223 219 223 198 209 214 215 212 216 211 211 217 216 206 195 199 192 197 210 230 236 240 247 258 270 276 283 288 292 290 283 281 285 284 284 284 276 286 292 292
221 225 224 224 223 222 220 224 208 209 212 224 220 221 221 219 219 224 224 214 208 208 215 219 229 233 233 240 250 261 271 276 281 283 285 285 288 289 288 288 287 288 290 293 293
220 222 225 221 223 221 218 219 219 218 218 219 223 226 224 222 224 230 234 234 234 231 230 232 240 241 239 246 256 263 274 279 279 284 292 293 291 290 290 290 290 290 291 291 291